PGT4RA LTFJ-ULLI

Flight info

Callsign PGT4RA
Flight time N/A
Altitude 36000
Route MAKOL1J/06L MAKOL N600 RORKI DCT LUGEB DCT RIVOS DCT LAPKA DCT KENIN DCT TOXAR/N0463F370 DCT VABER DCT LUNIT DCT GATVA DCT NUMSU T633 RISAT/K0859F370 T633 KOLET KOLET1B
Aircraft B738/M-SDE2E3FGHIRWXY/LB1

Departure

Time 2026-04-30 18:47
Airport Istanbul Sabiha Gökçen International Airport (LTFJ)

Arrival

Time N/A
Airport Pulkovo Airport (ULLI)
Time Latitude Longitude Altitude Speed Heading
2026-04-30 18:34 40.90200 29.30991 320 ft 0 kts 154°
2026-04-30 18:39 40.90201 29.30990 320 ft 2 kts 154°
2026-04-30 18:39 40.90219 29.30978 320 ft 3 kts 154°
2026-04-30 18:40 40.90238 29.30968 320 ft 3 kts 165°
2026-04-30 18:40 40.90257 29.30964 320 ft 3 kts 186°
2026-04-30 18:40 40.90275 29.30970 320 ft 3 kts 222°
2026-04-30 18:40 40.90282 29.30980 320 ft 1 kts 244°
2026-04-30 18:42 40.90277 29.30966 320 ft 6 kts 244°
2026-04-30 18:42 40.90245 29.30890 320 ft 12 kts 228°
2026-04-30 18:45 40.89524 29.29447 319 ft 23 kts 244°
2026-04-30 18:45 40.89454 29.29274 319 ft 16 kts 224°
2026-04-30 18:45 40.89354 29.29277 318 ft 15 kts 154°
2026-04-30 18:46 40.89287 29.29367 321 ft 15 kts 87°
2026-04-30 18:46 40.89367 29.29594 319 ft 56 kts 64°
2026-04-30 18:46 40.89645 29.30344 321 ft 123 kts 64°
2026-04-30 18:46 40.90100 29.31576 432 ft 166 kts 62°
2026-04-30 18:47 40.90603 29.32943 1245 ft 166 kts 62°
2026-04-30 18:47 40.91111 29.34321 2030 ft 169 kts 62°
2026-04-30 18:47 40.91665 29.35828 2304 ft 194 kts 63°
2026-04-30 18:47 40.92280 29.37501 2453 ft 212 kts 63°
2026-04-30 18:48 40.93203 29.39070 2642 ft 225 kts 31°
2026-04-30 18:48 40.94709 29.39429 3322 ft 221 kts 355°
2026-04-30 18:48 40.96257 29.39146 3851 ft 226 kts 354°
2026-04-30 18:48 40.97788 29.38831 4493 ft 229 kts 352°
2026-04-30 18:49 40.99437 29.38496 4694 ft 251 kts 352°
2026-04-30 18:49 41.01218 29.38134 5084 ft 264 kts 352°
2026-04-30 18:49 41.03059 29.37762 5846 ft 270 kts 352°
2026-04-30 18:49 41.04927 29.37380 6706 ft 273 kts 351°
2026-04-30 18:50 41.06817 29.36994 7562 ft 275 kts 351°
2026-04-30 18:50 41.08713 29.36607 8398 ft 277 kts 351°
2026-04-30 18:50 41.10639 29.36216 9164 ft 282 kts 350°
2026-04-30 18:50 41.12593 29.35819 9922 ft 287 kts 349°
2026-04-30 18:51 41.14621 29.35403 10187 ft 307 kts 348°
2026-04-30 18:51 41.16740 29.34970 10106 ft 305 kts 349°
2026-04-30 18:51 41.18765 29.34561 10241 ft 294 kts 349°
2026-04-30 18:51 41.20793 29.34151 10663 ft 294 kts 348°
2026-04-30 18:52 41.22844 29.33734 11000 ft 302 kts 349°
2026-04-30 18:52 41.24948 29.33837 11002 ft 308 kts 16°
2026-04-30 18:52 41.26762 29.35319 11013 ft 311 kts 46°
2026-04-30 18:52 41.27936 29.37722 11014 ft 313 kts 69°
2026-04-30 18:53 41.28399 29.40533 11003 ft 312 kts 92°
2026-04-30 18:53 41.28259 29.43400 11019 ft 311 kts 97°
2026-04-30 18:53 41.28025 29.46274 11009 ft 312 kts 98°
2026-04-30 18:53 41.27774 29.49142 11003 ft 313 kts 98°
2026-04-30 18:54 41.27523 29.52007 10998 ft 312 kts 98°
2026-04-30 18:54 41.27272 29.54877 10999 ft 312 kts 98°
2026-04-30 18:54 41.27027 29.57734 10998 ft 311 kts 98°
2026-04-30 18:54 41.26788 29.60582 11000 ft 310 kts 98°
2026-04-30 18:55 41.26629 29.63433 11001 ft 309 kts 92°
2026-04-30 18:55 41.26268 29.69062 11008 ft 307 kts 98°
2026-04-30 18:55 41.26028 29.71883 11009 ft 307 kts 98°
2026-04-30 18:56 41.25545 29.77499 10989 ft 295 kts 98°
2026-04-30 18:56 41.25321 29.80124 11018 ft 281 kts 98°
2026-04-30 18:56 41.25102 29.82697 11030 ft 281 kts 98°
2026-04-30 18:57 41.24659 29.87840 11008 ft 282 kts 99°
2026-04-30 18:57 41.24437 29.90422 11005 ft 281 kts 98°
2026-04-30 18:57 41.24212 29.93029 11008 ft 280 kts 99°
2026-04-30 18:58 41.23773 29.98129 11002 ft 277 kts 99°
2026-04-30 18:58 41.23555 30.00672 11009 ft 277 kts 99°
2026-04-30 18:58 41.23331 30.03239 11025 ft 282 kts 99°
2026-04-30 18:59 41.22878 30.08435 11011 ft 283 kts 98°
2026-04-30 19:00 41.22172 30.16501 11031 ft 299 kts 99°
2026-04-30 19:00 41.21932 30.19238 11017 ft 297 kts 98°
2026-04-30 19:00 41.21487 30.24636 11017 ft 295 kts 98°
2026-04-30 19:01 41.21046 30.30045 11017 ft 295 kts 98°
2026-04-30 19:01 41.20823 30.32750 11017 ft 295 kts 98°
2026-04-30 19:02 41.20932 30.38116 11004 ft 291 kts 63°
2026-04-30 19:02 41.24011 30.41099 11013 ft 278 kts
2026-04-30 19:03 41.27527 30.39660 11000 ft 265 kts 309°
2026-04-30 19:03 41.28712 30.35072 11047 ft 296 kts 272°
2026-04-30 19:04 41.28978 30.28952 11028 ft 357 kts 269°
2026-04-30 19:04 41.27504 30.22766 11024 ft 357 kts 238°
2026-04-30 19:05 41.24776 30.17207 11010 ft 360 kts 236°
2026-04-30 19:05 41.21997 30.11714 11017 ft 360 kts 236°
2026-04-30 19:06 41.19200 30.06218 11021 ft 359 kts 236°
2026-04-30 19:06 41.17802 30.03477 11018 ft 358 kts 236°
2026-04-30 19:06 41.15020 29.98020 11020 ft 356 kts 236°
2026-04-30 19:07 41.12244 29.92574 11018 ft 355 kts 236°
2026-04-30 19:07 41.10870 29.89875 11007 ft 347 kts 236°